C/2006 XA1 (LINEAR)
Epoch 2007 Aug. 8.0 TT = JDT 2454320.5  
T 2007 July 21.90012 TT                                 Nakano
q   1.8043727            (2000.0)            P               Q
z  +0.0040394      Peri.  187.41976     -0.81793716     -0.46661614
 +/-0.0000024      Node   318.66238     +0.55054317     -0.46507619
e   0.9927114      Incl.   30.63069     +0.16697612     -0.75231211
From 479 observations 2006 Dec. 9-2008 June 10, mean residual 0".52.
   (1/a)org.= +0.003829, (1/a)fut.= +0.004551 (+/-0.000002), Q= 7.
Residuals in seconds of arc 
2006/                     070204 D88  0.5-  0.2+    070316 A24  0.3-  0.1+  
061209 704 (2.2+  0.2+)   070204 D88  0.1+  0.1+    070316 A24  0.3-  0.0   
061209 704  1.9+  0.1-    070204 D88  0.2+  0.4+    070316 A24  1.1-  0.1+  
061209 704  0.7+  0.2+    070204 349  0.2-  0.3+    070316 A24  0.2-  0.2-  
061209 704  1.6+  0.3+    070204 349  0.0   0.4+    070316 A24  0.3-  0.0   
061209 704  0.2+  0.6+    070204 349  0.0   0.2+    070316 A24  0.1-  0.1-  
061211 704  0.7+  0.5+    070206 355  0.1-  0.0     070316 A24  0.6+  0.1-  
061211 704  0.3+  1.7+    070206 355  0.5+  0.6-    070316 A24  0.6-  0.0   
061211 704  1.1-  0.5+    070206 355  0.5-  0.4-    070316 A24  0.2+  0.1-  
061211 704  0.2+  0.3+    070206 355  0.2-  0.8-    070317 232  0.3+  0.0   
061211 704  0.1+  0.0     070208 704  0.0   0.9+    070317 232  0.1+  0.1-  
2007/                     070208 704  0.0   0.9+    070317 A77  0.6-  0.2+  
070108 704  0.2-  0.1+    070208 704  0.4-  0.4+    070317 A77  0.5+  0.1+  
070108 704  1.4-  0.0     070208 704  0.7-  0.1+    070317 232  0.0   0.3-  
070108 704  0.3-  0.0     070208 704  0.4+  0.1+    070317 939  0.9-  0.8+  
070108 704  0.2-  0.2+    070208 673  0.2-  0.3-    070317 939  0.4-  0.4+  
070108 704 (3.8-  1.4+)   070208 673  0.0   0.1-    070317 B30  0.3-  0.1-  
070109 H87  0.5-  0.4-    070208 673  0.2+  0.2-    070317 939  0.0   0.2+  
070109 H87  0.2-  0.3-    070208 673  0.2+  0.3-    070317 A77  0.3-  0.6+  
070109 704  0.6+  0.6+    070209 213  0.4-  0.3-    070317 B30  1.0-  0.2+  
070109 704  0.3+  1.1+    070209 213  0.0   0.6-    070317 B30  0.3-  0.0   
070109 704 (1.7+  2.3+)   070209 213  0.3-  0.2-    070322 J53  0.6-  0.7-  
070109 704  1.2+  1.6+    070210 232  0.7+  0.1+    070322 J53  0.4-  0.7-  
070109 704 (3.6+  1.2-)   070210 232  0.5+  0.2+    070322 J53  0.6-  0.7-  
070109 704 (2.6+  1.3-)   070210 232  0.0   0.0     070324 939  0.1-  0.2-  
070109 701 (8.4-  2.3-)   070212 D88  0.2-  0.2-    070324 939  0.1+  0.1-  
070109 704  0.2+  0.0     070212 D88  0.6-  0.0     070324 939  0.1+  0.2-  
070109 704  0.1+  0.2-    070212 D88  0.6-  0.4-    070326 B30  0.1-  0.7+  
070109 734  0.3-  0.4+    070212 349  0.0   0.1-    070326 B30  0.8+  0.0   
070109 704  1.8+  1.8+    070212 349  0.1-  0.3-    070326 B30  0.5+  0.9-  
070109 704  1.0+  0.4+    070212 349  0.1+  0.3-    070329 704  0.2+  0.3-  
070109 701 (0.1+  2.3-)   070212 J97  0.6-  0.2+    070329 704  0.1+  0.2-  
070109 734  0.7-  0.2+    070212 J97  0.4-  0.0     070329 704  1.4+  0.2-  
070109 H87  0.1-  0.7+    070212 J97  0.1-  0.8-    070329 704 (2.8+  0.5+) 
070109 734  0.5-  0.5-    070213 379  0.2-  0.1+    070329 A32  0.0   0.2-  
070109 734  0.1+  0.4+    070213 379  0.3+  0.0     070329 A32  0.4-  0.6+  
070109 734  0.1+  0.1-    070213 379  0.5-  0.6+    070329 A32  0.3-  0.7-  
070109 701  0.6-  0.0     070213 379  0.1+  0.5+    070405 D88  0.5-  0.3+  
070109 701 (0.7-  3.9-)   070214 J70  1.1+  0.5+    070405 D88  0.5-  0.2-  
070109 854  0.1-  0.4+    070214 J70  0.3+  1.2-    070405 D88  0.9+  0.0   
070109 854  0.2-  0.1+    070214 J70  1.2+  1.2-    070406 442  1.4+  0.3+  
070109 854  0.2-  0.0     070218 379  0.0   0.2-    070406 442  0.8-  0.9+  
070109 300  0.2-  0.5+    070218 379  0.3+  0.2+    070406 442  0.6-  1.7-  
070109 300  0.2+  0.1+    070218 379  0.3+  0.6-    070406 442 (2.1+  1.2-) 
070109 300  0.6-  0.2-    070218 379  0.0   0.1-    070406 232  0.3+  0.1-  
070109 300  0.2+  0.1+    070218 379  0.2-  0.3-    070406 232  0.2-  0.2-  
070109 300  0.1+  0.2+    070218 215  1.2+  1.9+    070406 232  0.2-  0.0   
070109 300  0.3-  0.5+    070218 215 (0.7+  2.1+)   070406 A32  0.1+  0.0   
070109 143  0.4-  0.3+    070218 215 (0.3+  2.5+)   070406 A32  0.3+  0.2+  
070109 143  0.3-  0.3+    070220 704 (1.5-  2.1+)   070406 A32  0.3-  0.0   
070109 143  0.3-  0.3+    070220 704  0.2-  0.1+    070406 A32  0.1-  0.0   
070109 143  0.3-  0.3+    070220 704  0.4-  0.1-    070407 B30  0.2+  0.1-  
070109 A06  0.6-  0.8+    070220 704  1.3-  0.3-    070407 B30  0.4+  0.0   
070109 A06  0.1+  0.1+    070220 704  0.5-  0.0     070407 B30  0.0   0.3-  
070110 H51  0.4+  0.4+    070224 349  0.4-  0.4-    070407 A18  1.4+  1.0-  
070110 H51  0.2+  0.3+    070224 349  0.7-  0.6-    070407 A18  0.2+  0.4+  
070110 H51  0.0   0.2-    070226 379  0.2-  0.9-    070408 213  0.2-  0.2-  
070110 H51  1.3+  1.3-    070226 379  0.2-  0.6-    070408 213  0.4-  0.4-  
070110 704  0.2+  0.0     070226 379  0.0   0.2-    070408 213  0.3-  0.3-  
070110 704  0.1+  0.0     070226 213  0.1-  0.5-    070408 B20  0.1-  1.1-  
070110 704  0.4-  0.1-    070226 213  0.0   0.1-    070408 B20  0.8-  0.5-  
070110 704  0.2+  0.3-    070226 213  0.3-  0.1+    070408 B20  0.2-  0.3+  
070110 704  0.5-  0.3-    070227 J70  1.2+  0.2+    070409 215  0.2-  0.1-  
070110 704  0.0   0.2+    070227 J70  0.8+  0.9-    070409 215  0.1-  0.2-  
070110 704  0.1+  0.1+    070227 J70  0.4-  0.8-    070409 215  0.0   0.3-  
070110 H87 (0.5+  2.1-)   070228 850  0.5+  0.0     070414 D88  0.7-  0.5-  
070110 704  0.8-  0.9-    070228 850  0.3+  0.1+    070414 D88  0.5-  1.1+  
070110 704  1.1+  1.7-    070301 D88  0.7-  0.4-    070414 D88  0.7+  0.1+  
070110 H87 (1.2-  3.8+)   070301 D88  0.2-  0.7-    070414 347  0.6-  1.4-  
070110 734  0.1+  0.0     070301 D88  0.2-  0.3-    070414 347  1.1-  0.9-  
070110 734  0.2-  0.1+    070303 939  0.1+  0.1+    070414 349  0.5+  0.0   
070110 H87  0.1+  0.1+    070303 939  0.1+  0.0     070414 349  0.6+  0.1+  
070110 701  0.3-  1.9+    070303 939  0.0   0.2-    070414 349  0.3+  0.3+  
070110 734  0.6-  0.0     070308 379  0.5+  0.4-    070414 561  0.1+  0.1+  
070110 854  0.5-  0.1+    070308 379  0.5+  0.0     070414 561  0.4-  0.1+  
070110 H87  0.6-  0.3-    070308 379  0.0   0.0     070414 561  1.2-  0.1-  
070110 854  0.0   0.0     070308 355  0.5+  0.6+    070415 A32  0.1-  0.1-  
070110 701 (2.4+  0.8-)   070308 355  0.4-  0.5+    070415 A32  0.0   0.1-  
070110 854  0.0   0.3+    070308 355  0.6-  0.4+    070415 A32  0.2+  0.1+  
070110 701  0.1+  0.3+    070310 232  0.1-  0.7-    070416 J70  0.4+  0.2+  
070110 673  0.0   0.2-    070310 232  0.1-  0.7-    070416 J70  0.4+  0.2+  
070110 673  0.1-  0.0     070310 232  0.1-  0.3+    070416 J70  0.9+  0.0   
070110 673  0.1+  0.0     070311 D88  0.2+  0.7+    070417 J70  1.2+  0.0   
070110 673  0.1+  0.1-    070311 D88  0.4+  0.6+    070417 J70  0.8+  0.1-  
070110 701  0.2-  0.6-    070311 D88  0.6+  0.9+    070417 J70  0.5+  0.7+  
070110 H06  1.3-  0.3-    070311 A24  0.2+  0.3-    070417 J70  0.2+  0.1-  
070110 H06 (1.8-  2.4-)   070311 A24  0.1+  0.1-    070417 J70  0.0   0.3-  
070110 349  0.3-  0.1+    070311 A24  0.2+  0.1+    070417 J70  0.3-  0.6+  
070110 349  0.2-  0.1-    070311 A24  0.1-  0.3-    070417 J70  0.8-  0.3-  
070110 349  0.0   0.1+    070311 A24  0.2-  0.1-    070417 J70  0.5+  0.3+  
070111 372  0.4-  0.1+    070311 A24  0.0   0.1-    070417 J70 (6.5+  1.4-) 
070111 372  0.4-  0.0     070311 939  0.1+  0.0     070417 J70  0.4+  1.3-  
070112 D88  0.6+  0.8+    070311 939  0.2+  0.1+    070417 J70  0.3+  0.2+  
070112 D88  0.6+  1.2+    070311 939  0.0   0.0     070417 J70  1.2+  0.6+  
070112 349  0.4-  0.6+    070311 A24  0.0   0.2-    070421 213  0.6-  0.2-  
070112 349  0.6-  0.7+    070311 A24  0.1+  0.1-    070421 213  0.5-  0.1-  
070112 349  0.6-  0.5+    070311 A24  0.3+  0.1-    070421 213  0.5-  0.0   
070112 104  0.5-  0.9+    070311 A18  0.0   0.2-    070424 J64  0.5+  0.3-  
070112 104  0.3-  0.4+    070312 A24  0.0   0.3-    070424 J64  0.1-  0.1+  
070112 104  0.3-  0.3+    070312 A24  0.0   0.3-    070424 J64  0.3-  0.2+  
070112 213  0.0   0.1-    070312 A32  0.3-  0.1-    070426 A32  0.0   0.2+  
070112 213  0.1-  0.1-    070312 A18  1.2+  0.9+    070426 A32  0.1-  0.1+  
070112 213  0.1-  0.1-    070312 A32  0.1-  0.2-    070426 A32  0.1-  0.3+  
070112 130  0.5-  1.0+    070312 215  0.2+  0.2-    070426 A32  0.2-  0.2+  
070112 130  0.2+  0.4-    070312 215  0.1-  0.7-    070428 204  0.4-  0.1-  
070112 130  0.6+  0.5-    070312 215  0.1+  0.4-    070428 A33  0.3+  0.5-  
070113 147  0.5-  0.4-    070312 A32  0.2-  0.3-    070428 204  0.2-  0.1-  
070113 147  0.4+  0.1-    070312 A32  0.1-  0.2-    070429 D88  0.9-  0.1+  
070113 147  0.3+  0.6-    070312 A32  0.1-  0.2-    070429 D88  0.8-  0.1+  
070113 A06  0.4+  0.4+    070312 A24  0.1+  0.1-    070429 D88  0.2-  0.1-  
070113 A06  0.1+  0.6-    070312 A24  0.1-  0.0     070430 349  0.7-  0.2-  
070113 215  0.6-  0.9+    070312 A30  0.9+  0.4+    070430 349  0.4-  0.4-  
070113 204  0.0   0.0     070312 A30  0.5+  0.8+    070430 349  0.2-  0.1-  
070114 704  0.1-  0.7+    070312 B30  0.7+  0.3-    070430 213  0.1-  0.4-  
070114 704  0.1-  0.3+    070312 A30  1.8+  0.8+    070430 213  0.2+  0.1+  
070114 704  0.0   0.4-    070312 B30  1.5+  0.3+    070430 213  0.5+  0.3-  
070114 704  0.1+  0.1-    070313 048  0.0   0.0     070430 A33  0.1+  0.5-  
070114 704  0.4+  0.1-    070313 048  0.5+  0.0     070430 A33  0.7-  0.8-  
070114 372  1.0+  0.5-    070313 048  0.1+  0.3-    070506 213  0.2-  1.1+  
070114 A41  0.1+  0.2-    070313 048  0.0   0.2+    070506 213  0.2+  0.3+  
070114 A41  0.2-  0.0     070313 048  0.5+  0.1+    070506 213  0.5-  0.2+  
070115 561  0.2-  0.1+    070313 A24  0.0   0.0     070507 D88  1.1-  0.1-  
070115 561  0.0   0.4+    070313 A24  0.1+  0.0     070507 D88  0.6-  0.0   
070115 561  0.1+  0.1+    070313 A24 (0.1-  2.4+)   070507 D88  0.0   0.0   
070115 561  0.1-  0.2+    070313 A24 (0.4-  4.8+)   070507 J76  0.1-  0.3+  
070116 J70 (4.3+ 12.4-)   070313 J64  0.2+  0.4-    070507 J76  0.1-  0.2+  
070116 J70 (0.4- 11.1-)   070313 J64  0.2+  0.0     070507 J76  0.2-  0.1+  
070116 J70 (1.1+  4.7-)   070313 J64  0.1+  0.1-    070508 D88  0.5-  0.9-  
070118 J70  0.4+  1.3-    070313 A24  0.0   0.1-    070508 D88  0.3-  0.6-  
070118 J70  0.5-  0.2+    070313 A24  1.6+  0.1-    070508 D88  0.2-  0.7-  
070118 J70  0.2-  0.6+    070313 A24 (0.0   2.7+)   070508 619  0.2+  0.1-  
070119 213  0.8-  0.1-    070313 A24 (0.2-  4.7+)   070508 619  0.8+  0.3-  
070119 213  0.1-  0.3+    070313 A24  0.0   0.2-    070508 619  0.1+  0.0   
070119 213  0.1-  0.3-    070313 A24  0.0   0.1-    070508 J70  0.6+  0.1-  
070119 J76  0.3-  0.1-    070313 A24 (0.3-  3.6+)   070508 J70  0.7+  0.3-  
070119 J76  0.2-  0.1-    070314 104  0.2+  0.3-    070508 J70  0.6+  0.4+  
070119 J76  0.0   0.2-    070314 104  0.0   0.1-    070508 J70  1.3+  0.0   
070120 232  0.6-  0.2+    070314 A24  0.1+  0.1+    070512 213  0.2-  0.1+  
070120 232  0.3-  0.2+    070314 A24  0.2+  0.1+    070512 213  0.4+  0.4+  
070120 232  0.6-  0.1+    070314 A24  0.0   0.2+    070512 213  0.5-  0.9+  
070120 J76  0.2+  0.3+    070314 A24  0.5+  0.2+    070515 D88  0.4-  0.2+  
070120 J76  0.1+  0.0     070314 A24  0.4+  0.1+    070515 D88  0.0   0.7+  
070120 J76  0.2+  0.1-    070314 A24  0.2+  0.1+    070515 D88  0.3+  0.9+  
070122 379  0.3-  0.6+    070314 A24  0.5+  0.0     070515 J64  0.3-  0.3+  
070122 379  0.4-  0.6+    070314 A24  0.5+  0.1+    070515 J64  0.3-  0.3+  
070122 379  1.1-  0.6+    070314 A24  0.3+  0.1-    070515 J64  0.6-  0.3+  
070124 379  0.1-  1.8+    070314 A24  0.1-  0.2+    070519 349  0.4-  0.3+  
070124 379  1.1-  1.4+    070314 A24  0.2+  0.2-    070519 349  0.3-  0.1+  
070124 379  0.5-  1.1+    070314 A24  1.0-  0.1-    070519 349  0.1-  0.1+  
070125 D88  0.2-  0.2+    070314 A24 (2.1-  1.1+)   070610 D88  1.2-  0.4+  
070125 D88  0.8-  0.7+    070314 A24  0.1-  0.0     070610 D88  0.9-  1.0+  
070125 D88  0.5-  0.5+    070314 A24  0.0   0.0     070610 D88  1.5-  0.2+  
070127 D88  1.2-  0.0     070314 A24  0.4-  0.0     2008/                   
070127 D88  1.2-  0.1-    070314 A24  0.4-  0.0     080304 415  0.1+  1.6+  
070127 D88  0.9-  0.5+    070314 A24  0.6-  0.2+    080304 415  0.2-  1.5+  
070127 232  0.4-  0.5-    070314 A24  0.8-  0.1+    080309 415 (0.4+  2.1+) 
070127 232  0.2+  0.2-    070315 A24  0.2-  0.2-    080309 415  0.2+  1.4+  
070127 232  0.2+  0.4-    070315 A24  0.1-  0.1-    080404 415  1.2+  1.2+  
070130 D88  0.0   0.7-    070315 A24  1.7+  1.6+    080404 415  0.3+  0.9+  
070130 D88  0.5+  0.3-    070315 A24 (1.2+  2.0+)   080412 415  0.0   0.9+  
070130 D88  0.3+  0.1+    070315 A24 (1.4+  2.1+)   080412 415  0.3+  1.0+  
070130 349  0.1+  0.2-    070315 A24 (0.6+  2.2+)   080429 415  0.6-  0.2-  
070130 349  0.1+  0.3-    070315 A24  0.1-  0.2-    080429 415  1.9+  0.2+  
070130 349  0.0   0.1-    070315 A24  0.1+  0.1-    080508 415  0.8-  0.9+  
070203 D88  0.6+  0.5+    070315 939  0.3+  0.1-    080508 415  0.1+  1.0+  
070203 D88  0.2+  0.6+    070315 939  0.2+  0.1+    080510 474  0.0   1.0+  
070203 D88  0.4+  0.3+    070315 A24  0.1+  0.1-    080510 474  0.4+  0.9+  
070203 232  0.0   0.2+    070315 939  0.0   0.2+    080610 474  0.3-  1.3+  
070203 232  0.0   0.0     070315 A24  0.1+  0.3-    080610 474  0.6-  1.4+  
070203 232 (2.1-  0.0 )   070315 A24  0.0   0.1-    080610 474  0.4-  1.5+  
070203 204  0.1-  0.1-    070316 A24  0.2-  0.0                             
070203 204  0.1-  0.3-    070316 A24  0.2-  0.1-                            

